Location: Gunung Kajang
(2.4167°N, 113.7167°E)
Time: 05:39:25
(UTC+00:00)

SJ 16-02 - Pass Details

Date: 29 May 2022
Orbit: 604 x 615 km, 75.0° (Epoch: 24 June)

Event Time Altitude Azimuth Distance (km) Brightness Sun altitude
Exits shadow 12:19:40 68° 279° (W) 651 1.5 -26.0°
Maximum altitude 12:19:41 68° 281° (W) 651 1.5 -26.0°
Drops below altitude 10° 12:23:59 10° 4° (N) 1,940 4.1 -27.0°
Sets 12:26:13 0° 7° (N) 2,841 5.0 -27.5°
